Starlink 2609

operational
NORAD ID: 48373 Int'l Des: 2021-038 Owner: SPXS Country: US Constellation: starlink
LEOCIRCULARSTARLINK_TYPE

Über Starlink 2609

Beschreibung wird geladen...

Live-Position

3D-Globus wird geladen...

Nächste Überflüge

Höhenverlauf

Altitude vs Time

uPlot chart will show altitude changes over time

Zweizeiliger Elementsatz

1 48373U 21038W 25351.41773663 -.00002326 00000-0 -13729-3 0 9992
2 48373 53.0556 0.9496 0001460 86.9452 273.1704 15.06402097254766
Epoch: 17. Dez. 2025 • Age: 11 hours

Aktueller Status

Höhe 551.5 km
Geschwindigkeit 7.59 km/s
Subsatellitenpunkt 47.21°N, 3.96°E
Startdatum 4. Mai 2021
Alter 4.6 years
Typ internet

Technische Details

Klassifizierung Payload
Masse 260.00 kg
Trockenmasse 248.00 kg
Gesamtmasse 260.00 kg
Länge 0.20 m
Durchmesser 2.80 m
Spannweite 9.00 m
Form Box + pan
Hersteller SPXS
Bus-Typ Starlink
Phasenstatus In Orbit
Besitzer/Staat SPXS/US

Große Konstellationen

Loading constellations...